�������l�o���
Date,Time,MP-1(��Sv/h),MP-2(��Sv/h),MP-3(��Sv/h),MP-4(��Sv/h),MP-5(��Sv/h),MP-6(��Sv/h),MP-7(��Sv/h),MP-8(��Sv/h),����,����(m/s),���J
2022/11/02,00:00,0.587,0.840,0.528,1.056,0.744,0.341,0.593,0.561,��쐼,6.1,�L
2022/11/02,00:10,0.587,0.838,0.529,1.056,0.743,0.340,0.594,0.561,�쐼,3.6,�L
2022/11/02,00:20,0.589,0.837,0.528,1.057,0.742,0.340,0.593,0.560,��쐼,4.0,�L
2022/11/02,00:30,0.587,0.837,0.527,1.056,0.742,0.340,0.591,0.560,��,6.2,��
2022/11/02,00:40,0.586,0.837,0.529,1.056,0.742,0.339,0.593,0.559,��,5.3,��
2022/11/02,00:50,0.587,0.835,0.526,1.056,0.741,0.340,0.593,0.560,��쐼,3.7,��
2022/11/02,01:00,0.585,0.836,0.528,1.058,0.741,0.339,0.592,0.560,�쐼,3.0,��
2022/11/02,01:10,0.587,0.835,0.528,1.057,0.742,0.338,0.592,0.560,�쐼,2.3,��
2022/11/02,01:20,0.586,0.835,0.528,1.056,0.742,0.337,0.593,0.559,�쐼,2.6,��
2022/11/02,01:30,0.586,0.836,0.528,1.057,0.741,0.339,0.591,0.560,���쐼,3.1,��
2022/11/02,01:40,0.588,0.836,0.528,1.056,0.740,0.337,0.592,0.559,��,2.6,�L
2022/11/02,01:50,0.586,0.836,0.527,1.056,0.740,0.337,0.591,0.559,��,3.4,�L
2022/11/02,02:00,0.584,0.835,0.527,1.058,0.740,0.339,0.592,0.559,���k��,4.8,��
2022/11/02,02:10,0.586,0.834,0.527,1.057,0.740,0.339,0.594,0.560,���k��,5.5,��
2022/11/02,02:20,0.585,0.836,0.528,1.056,0.739,0.339,0.593,0.560,���k��,6.4,��
2022/11/02,02:30,0.585,0.837,0.527,1.056,0.739,0.338,0.594,0.559,���k��,4.5,��
2022/11/02,02:40,0.586,0.836,0.527,1.057,0.740,0.339,0.593,0.560,���k��,3.5,��
2022/11/02,02:50,0.584,0.834,0.527,1.056,0.740,0.337,0.592,0.560,���k��,3.3,��
2022/11/02,03:00,0.585,0.836,0.526,1.054,0.740,0.339,0.593,0.560,��,2.5,��
2022/11/02,03:10,0.584,0.834,0.526,1.057,0.739,0.339,0.593,0.559,��,3.7,��
2022/11/02,03:20,0.585,0.834,0.526,1.058,0.741,0.338,0.593,0.560,���쐼,3.5,��
2022/11/02,03:30,0.584,0.835,0.526,1.055,0.741,0.338,0.592,0.558,��,4.1,��
2022/11/02,03:40,0.585,0.833,0.527,1.056,0.741,0.337,0.593,0.559,���쐼,4.1,��
2022/11/02,03:50,0.585,0.835,0.526,1.057,0.739,0.338,0.591,0.560,���k��,3.2,��
2022/11/02,04:00,0.586,0.835,0.527,1.056,0.740,0.338,0.593,0.559,���k��,3.5,��
2022/11/02,04:10,0.583,0.836,0.526,1.057,0.742,0.338,0.594,0.557,���k��,3.7,��
2022/11/02,04:20,0.584,0.836,0.525,1.055,0.742,0.338,0.593,0.559,���k��,2.3,��
2022/11/02,04:30,0.586,0.836,0.527,1.057,0.739,0.337,0.592,0.559,���k��,1.9,��
2022/11/02,04:40,0.584,0.833,0.528,1.058,0.740,0.337,0.593,0.559,���k��,2.6,��
2022/11/02,04:50,0.585,0.833,0.526,1.056,0.741,0.338,0.592,0.560,���k��,3.5,��
2022/11/02,05:00,0.585,0.835,0.526,1.056,0.740,0.338,0.592,0.558,���k��,2.6,��
2022/11/02,05:10,0.585,0.835,0.527,1.056,0.738,0.339,0.593,0.558,���k��,2.6,��
2022/11/02,05:20,0.583,0.833,0.525,1.057,0.738,0.336,0.591,0.559,�k��,2.8,��
2022/11/02,05:30,0.585,0.834,0.527,1.056,0.738,0.338,0.593,0.561,�k��,3.7,��
2022/11/02,05:40,0.583,0.836,0.526,1.060,0.740,0.337,0.592,0.558,�k��,3.5,��
2022/11/02,05:50,0.583,0.833,0.526,1.058,0.739,0.337,0.593,0.558,���k��,2.5,��
2022/11/02,06:00,0.583,0.832,0.525,1.056,0.739,0.336,0.592,0.558,���k��,2.0,��
2022/11/02,06:10,0.583,0.835,0.526,1.054,0.739,0.336,0.593,0.560,���k��,1.7,��
2022/11/02,06:20,0.585,0.831,0.526,1.056,0.741,0.337,0.591,0.558,���k��,2.0,��
2022/11/02,06:30,0.584,0.834,0.527,1.055,0.739,0.337,0.592,0.560,���k��,2.2,��
2022/11/02,06:40,0.583,0.835,0.524,1.057,0.740,0.338,0.593,0.559,���k��,2.9,��
2022/11/02,06:50,0.584,0.835,0.524,1.053,0.740,0.338,0.592,0.560,���k��,3.4,��
2022/11/02,07:00,0.586,0.834,0.525,1.056,0.739,0.337,0.593,0.559,�k��,3.1,��
2022/11/02,07:10,0.584,0.836,0.527,1.055,0.740,0.338,0.593,0.558,�k��,3.0,��
2022/11/02,07:20,0.585,0.835,0.526,1.055,0.741,0.338,0.592,0.560,���k��,3.5,��
2022/11/02,07:30,0.585,0.835,0.526,1.053,0.740,0.338,0.594,0.559,�k��,2.9,��
2022/11/02,07:40,0.585,0.834,0.526,1.057,0.740,0.338,0.592,0.559,�k��,3.2,��
2022/11/02,07:50,0.584,0.835,0.525,1.056,0.739,0.338,0.594,0.560,�k�k��,2.2,��
2022/11/02,08:00,0.584,0.833,0.525,1.054,0.741,0.338,0.594,0.559,�k��,1.7,��
2022/11/02,08:10,0.586,0.832,0.527,1.056,0.739,0.339,0.594,0.560,���k��,1.5,��
2022/11/02,08:20,0.587,0.833,0.527,1.056,0.738,0.339,0.595,0.560,��,2.5,��
2022/11/02,08:30,0.586,0.831,0.528,1.055,0.739,0.338,0.594,0.560,�k��,2.5,��
2022/11/02,08:40,0.585,0.831,0.526,1.054,0.740,0.339,0.594,0.559,�k��,2.0,��
2022/11/02,08:50,0.585,0.830,0.527,1.057,0.741,0.338,0.592,0.558,�k��,1.7,��
2022/11/02,09:00,0.584,0.828,0.528,1.056,0.740,0.338,0.594,0.559,���k��,1.2,��
2022/11/02,09:10,0.585,0.831,0.528,1.058,0.739,0.339,0.591,0.560,�k��,0.8,��
2022/11/02,09:20,0.587,0.831,0.527,1.057,0.741,0.339,0.594,0.559,���k��,0.8,��
2022/11/02,09:30,0.586,0.833,0.528,1.056,0.741,0.339,0.593,0.559,��,0.8,��
2022/11/02,09:40,0.584,0.832,0.528,1.058,0.741,0.338,0.592,0.560,-,CALM,��
2022/11/02,09:50,0.587,0.832,0.527,1.057,0.739,0.336,0.593,0.561,���쓌,1.2,��
2022/11/02,10:00,0.588,0.833,0.528,1.057,0.738,0.337,0.594,0.561,���쓌,1.4,��
2022/11/02,10:10,0.585,0.833,0.527,1.056,0.742,0.337,0.595,0.559,��,1.5,��
2022/11/02,10:20,0.588,0.831,0.526,1.057,0.743,0.337,0.593,0.559,�쓌,1.9,��
2022/11/02,10:30,0.586,0.834,0.527,1.057,0.740,0.337,0.594,0.558,�쓌,1.4,��
2022/11/02,10:40,0.588,0.833,0.526,1.057,0.741,0.337,0.594,0.559,�쓌,1.4,��
2022/11/02,10:50,0.586,0.832,0.527,1.058,0.740,0.337,0.593,0.558,���쓌,1.9,��
2022/11/02,11:00,0.586,0.833,0.526,1.059,0.741,0.336,0.593,0.560,���쓌,2.0,��
2022/11/02,11:10,0.586,0.834,0.528,1.059,0.741,0.338,0.593,0.559,���쓌,2.0,��
2022/11/02,11:20,0.587,0.834,0.527,1.056,0.740,0.337,0.593,0.559,���쓌,1.7,��
2022/11/02,11:30,0.587,0.834,0.528,1.055,0.743,0.337,0.593,0.558,���쓌,2.3,��
2022/11/02,11:40,0.587,0.835,0.525,1.059,0.741,0.338,0.593,0.558,���쓌,2.3,��
2022/11/02,11:50,0.586,0.835,0.527,1.057,0.741,0.338,0.594,0.560,���쓌,2.2,��
2022/11/02,12:00,0.586,0.837,0.528,1.057,0.739,0.338,0.593,0.560,��,2.0,��
2022/11/02,12:10,0.587,0.834,0.527,1.056,0.742,0.337,0.593,0.560,���쓌,2.6,��
2022/11/02,12:20,0.587,0.836,0.528,1.056,0.743,0.338,0.592,0.556,���쓌,2.9,��
2022/11/02,12:30,0.587,0.836,0.528,1.059,0.743,0.339,0.592,0.557,���쓌,2.9,��
2022/11/02,12:40,0.586,0.835,0.527,1.057,0.744,0.339,0.593,0.559,���쓌,2.6,��
2022/11/02,12:50,0.588,0.836,0.528,1.058,0.742,0.338,0.592,0.559,��,2.0,��
2022/11/02,13:00,0.586,0.836,0.529,1.060,0.741,0.338,0.594,0.559,���k��,2.2,��
2022/11/02,13:10,0.588,0.835,0.529,1.060,0.740,0.337,0.594,0.558,�k��,2.3,��
2022/11/02,13:20,0.588,0.835,0.527,1.057,0.743,0.336,0.593,0.558,���k��,2.0,��
2022/11/02,13:30,0.587,0.835,0.527,1.059,0.743,0.339,0.594,0.559,�k��,2.3,��
2022/11/02,13:40,0.588,0.834,0.529,1.056,0.743,0.338,0.593,0.558,���k��,2.0,��
2022/11/02,13:50,0.587,0.834,0.526,1.056,0.744,0.337,0.595,0.557,���k��,2.3,��
2022/11/02,14:00,0.588,0.834,0.528,1.055,0.743,0.337,0.593,0.558,�k��,2.2,��
2022/11/02,14:10,0.587,0.834,0.529,1.058,0.743,0.338,0.593,0.558,�k��,1.7,��
2022/11/02,14:20,0.588,0.835,0.528,1.059,0.744,0.337,0.593,0.559,�k��,2.3,��
2022/11/02,14:30,0.589,0.833,0.527,1.056,0.745,0.339,0.592,0.559,���k��,1.7,��
2022/11/02,14:40,0.587,0.836,0.528,1.058,0.746,0.338,0.592,0.558,�k�k��,1.5,��
2022/11/02,14:50,0.587,0.834,0.528,1.057,0.744,0.336,0.594,0.557,�k�k��,1.2,��
2022/11/02,15:00,0.587,0.834,0.527,1.059,0.743,0.338,0.593,0.558,�k�k��,1.5,��
2022/11/02,15:10,0.585,0.835,0.529,1.057,0.745,0.337,0.593,0.559,�k��,1.5,��
2022/11/02,15:20,0.587,0.836,0.526,1.059,0.744,0.337,0.593,0.558,�k,1.9,��
2022/11/02,15:30,0.585,0.836,0.528,1.057,0.743,0.338,0.593,0.558,�k,2.0,��
2022/11/02,15:40,0.586,0.837,0.527,1.058,0.743,0.339,0.593,0.559,�k�k��,1.5,��
2022/11/02,15:50,0.585,0.834,0.529,1.057,0.742,0.340,0.593,0.557,�k,1.4,��
2022/11/02,16:00,0.585,0.837,0.528,1.057,0.741,0.340,0.595,0.559,�k,1.5,��
2022/11/02,16:10,0.587,0.838,0.528,1.058,0.746,0.339,0.593,0.559,�k,0.6,��
2022/11/02,16:20,0.585,0.840,0.526,1.056,0.745,0.338,0.594,0.560,�k,0.9,��
2022/11/02,16:30,0.585,0.838,0.527,1.059,0.741,0.339,0.592,0.558,�k�k��,0.9,��
2022/11/02,16:40,0.584,0.842,0.526,1.058,0.743,0.339,0.594,0.560,�k,1.4,��
2022/11/02,16:50,0.586,0.840,0.527,1.059,0.745,0.339,0.593,0.561,�k�k��,1.1,��
2022/11/02,17:00,0.586,0.839,0.526,1.057,0.744,0.338,0.593,0.560,�k�k��,1.2,��
2022/11/02,17:10,0.587,0.842,0.528,1.058,0.743,0.340,0.594,0.561,�k�k��,1.5,��
2022/11/02,17:20,0.588,0.840,0.529,1.057,0.743,0.338,0.594,0.561,�k�k��,1.9,��
2022/11/02,17:30,0.586,0.840,0.530,1.060,0.743,0.340,0.592,0.560,�k�k��,2.6,��
2022/11/02,17:40,0.587,0.838,0.531,1.059,0.745,0.338,0.594,0.560,�k�k��,3.0,��
2022/11/02,17:50,0.586,0.839,0.531,1.058,0.744,0.339,0.595,0.560,�k�k��,2.6,��
2022/11/02,18:00,0.587,0.840,0.529,1.060,0.746,0.339,0.593,0.559,�k�k��,2.6,��
2022/11/02,18:10,0.587,0.839,0.530,1.057,0.746,0.340,0.593,0.562,�k�k��,2.6,��
2022/11/02,18:20,0.588,0.839,0.529,1.057,0.744,0.339,0.594,0.559,�k�k��,2.3,��
2022/11/02,18:30,0.588,0.840,0.529,1.058,0.746,0.338,0.595,0.560,�k�k��,1.4,��
2022/11/02,18:40,0.588,0.839,0.530,1.057,0.746,0.338,0.593,0.562,�k,1.2,��
2022/11/02,18:50,0.587,0.840,0.531,1.060,0.744,0.340,0.594,0.561,�k�k��,0.6,��
2022/11/02,19:00,0.587,0.839,0.531,1.057,0.745,0.338,0.592,0.559,�k�k��,0.6,��
2022/11/02,19:10,0.588,0.840,0.529,1.057,0.745,0.340,0.592,0.560,-,CALM,��
2022/11/02,19:20,0.587,0.841,0.530,1.055,0.744,0.340,0.593,0.560,���k��,0.8,��
2022/11/02,19:30,0.586,0.838,0.531,1.060,0.745,0.339,0.594,0.561,-,CALM,��
2022/11/02,19:40,0.587,0.838,0.529,1.057,0.744,0.340,0.594,0.560,���쐼,0.6,��
2022/11/02,19:50,0.586,0.839,0.529,1.057,0.746,0.340,0.593,0.560,���쐼,0.8,��
2022/11/02,20:00,0.588,0.839,0.530,1.058,0.745,0.340,0.594,0.559,-,CALM,��
2022/11/02,20:10,0.587,0.838,0.529,1.054,0.746,0.339,0.594,0.561,���쐼,0.6,��
2022/11/02,20:20,0.589,0.842,0.530,1.059,0.745,0.339,0.593,0.560,�쐼,0.9,��
2022/11/02,20:30,0.586,0.838,0.530,1.058,0.745,0.340,0.595,0.561,��쐼,1.4,��
2022/11/02,20:40,0.586,0.839,0.530,1.058,0.744,0.339,0.594,0.558,��쐼,1.2,��
2022/11/02,20:50,0.587,0.839,0.531,1.057,0.746,0.339,0.593,0.561,�쐼,2.0,��
2022/11/02,21:00,0.586,0.842,0.529,1.056,0.748,0.340,0.594,0.559,�쐼,1.7,��
2022/11/02,21:10,0.587,0.841,0.532,1.059,0.745,0.340,0.593,0.560,�쐼,1.7,��
2022/11/02,21:20,0.587,0.840,0.528,1.058,0.745,0.340,0.594,0.559,�쐼,1.7,��
2022/11/02,21:30,0.589,0.839,0.529,1.056,0.745,0.340,0.593,0.559,�쐼,1.5,��
2022/11/02,21:40,0.590,0.841,0.528,1.059,0.745,0.338,0.592,0.560,�쐼,1.5,��
2022/11/02,21:50,0.588,0.841,0.529,1.057,0.745,0.338,0.592,0.559,�쐼,1.5,��
2022/11/02,22:00,0.587,0.841,0.528,1.057,0.746,0.341,0.594,0.560,��쐼,1.7,��
2022/11/02,22:10,0.587,0.841,0.529,1.060,0.744,0.340,0.593,0.560,�쐼,1.7,��
2022/11/02,22:20,0.589,0.842,0.530,1.058,0.744,0.340,0.594,0.561,�쐼,1.5,��
2022/11/02,22:30,0.587,0.838,0.530,1.057,0.744,0.339,0.593,0.561,��쐼,1.2,��
2022/11/02,22:40,0.587,0.840,0.532,1.056,0.744,0.339,0.592,0.561,�쐼,1.5,��
2022/11/02,22:50,0.588,0.837,0.530,1.056,0.746,0.339,0.592,0.560,��쐼,1.9,��
2022/11/02,23:00,0.588,0.840,0.529,1.056,0.746,0.339,0.594,0.560,��쐼,1.5,��
2022/11/02,23:10,0.588,0.839,0.529,1.058,0.742,0.338,0.593,0.561,�쐼,1.7,��
2022/11/02,23:20,0.588,0.838,0.531,1.057,0.746,0.339,0.594,0.559,��쐼,1.5,��
2022/11/02,23:30,0.587,0.840,0.529,1.057,0.746,0.339,0.594,0.560,��쐼,1.7,��
2022/11/02,23:40,0.587,0.838,0.529,1.057,0.746,0.340,0.592,0.560,��쐼,1.5,��
2022/11/02,23:50,0.585,0.840,0.529,1.059,0.745,0.340,0.592,0.560,��쐼,1.2,��
